COSMOS 2251 DEB, 34024

Orbit data source: Space-Track

COSMOS 2251 DEB, 34024 is space debris in LEO originally from a launch on Wed, 16 Jun 1993 UTC launched from the Plesetsk Missile And Space Complex (PKMTR). The debris from Iridium 33, an American commercial communications satellite, has been tracked extensively since its accidental collision with the defunct Russian satellite Cosmos 2251 in 2009. This event, occurring at high speed in low Earth orbit (LEO), generated thousands of pieces of space debris, significantly increasing the risk of further collisions. The Iridium 33 debris cloud has impacted space traffic management and orbital debris mitigation strategies, making it a subject of ongoing study in space situational awareness.

Loading next visibility...
Identifier
34024, 1993-036HK
Orbit
LEO
Country
Flag of CISCIS
Related business
Manufacturer
Unknown
Mission
Spacecraft
Bus & Motor
Unknown
Mass
Unknown
Launch date (UTC)
1993-06-16 (33 years ago)
Launch vehicle
Unknown
Launch site
Plesetsk Missile And Space Complex (PKMTR)
Object type
Payload
Rocket body
Debris
Shape & HBR
Unknown shape, 0.1 m
Radar Cross Section
Small (<0.1 m²)

Expand to show TLE details & history
Last TLE update: 11 hours ago

TLE from 11 hours ago
0 COSMOS 2251 DEB
1 34024U 93036HK  26123.90912403  .00000426  00000-0  15656-3 0  9994
2 34024  74.0472  55.3835 0020112  75.5247 347.3472 14.35555586900640
Epoch: 2026-05-03T21:49Z
TLE epoch observation values (Epoch: 2026-05-03T21:49:08.316Z)
Latitude
58.90255°
Longitude
-105.58278°
Altitude
768.803 km
Speed
7.483 km/s
True Right ascension
05h 34m 01s
True Declination
58° 45' 02"
Sunlit
Object was in daylight at epoch
Visualization orbit readout
Latitude
Unknown
Longitude
Unknown
Altitude
Unknown
Speed
Unknown
Apparent Right ascension
Unknown
Apparent Declination
Unknown
Sunlit
N/A
Visualization observer readout
Local Sidereal Time
16:39:04
Azimuth
Unknown
Elevation
Unknown
Doppler factor
Unknown
Orbital elements
Apogee altitude
785.222 km
Perigee altitude
756.466 km
Semi-major axis
7,148.981 km
Eccentricity
0.00201
Inclination
74.0472°
RAAN
55.3835°
Arg. of periapsis
75.5247°
True anomaly
347.29659°
Mean anomaly
347.3472°
Eccentric anomaly
347.32191°
Mean motion
3.59068 °/min
Orbital period
100.26 mins
BSTAR
0.00015656
Loading maneuver chart data...
Computing Atmospheric mass density...
Loading historical data...
Loading historical data...
Loading historical data...
Loading historical data...
Loading historical data...
Loading historical data...
Loading historical data...

Documentation

Showing up to 5 results
|